AAL2027 KLAX-KPHX

Flight info

Callsign AAL2027
Flight time 0h 57m
Altitude 33000
Route DOTSS2 CNERY BLH HYDRR1
Aircraft B738/M-SDE2E3FGHIRWXY/LB1

Departure

Time 2026-05-04 14:49
Airport Los Angeles International Airport (KLAX)

Arrival

Time 2026-05-04 15:47
Airport Phoenix Sky Harbor International Airport (KPHX)
Time Latitude Longitude Altitude Speed Heading
2026-05-04 14:19 33.94077 -118.40606 92 ft 0 kts 250°
2026-05-04 14:38 33.94078 -118.40604 92 ft 2 kts 249°
2026-05-04 14:38 33.94085 -118.40585 93 ft 2 kts 239°
2026-05-04 14:38 33.94095 -118.40570 92 ft 2 kts 208°
2026-05-04 14:39 33.94111 -118.40566 91 ft 2 kts 174°
2026-05-04 14:39 33.94119 -118.40567 91 ft 0 kts 173°
2026-05-04 14:42 33.94079 -118.40561 91 ft 6 kts 173°
2026-05-04 14:42 33.94035 -118.40555 92 ft 7 kts 173°
2026-05-04 14:42 33.93981 -118.40547 93 ft 8 kts 172°
2026-05-04 14:43 33.93920 -118.40548 92 ft 9 kts 207°
2026-05-04 14:43 33.93897 -118.40622 92 ft 11 kts 263°
2026-05-04 14:43 33.93887 -118.40728 92 ft 13 kts 263°
2026-05-04 14:43 33.93876 -118.40844 92 ft 15 kts 263°
2026-05-04 14:44 33.93863 -118.40972 95 ft 16 kts 263°
2026-05-04 14:44 33.93851 -118.41114 92 ft 17 kts 282°
2026-05-04 14:44 33.93953 -118.41176 93 ft 18 kts 356°
2026-05-04 14:44 33.94084 -118.41194 92 ft 20 kts 353°
2026-05-04 14:45 33.94230 -118.41215 92 ft 22 kts 353°
2026-05-04 14:45 33.94383 -118.41238 93 ft 23 kts 353°
2026-05-04 14:45 33.94546 -118.41262 92 ft 24 kts 353°
2026-05-04 14:45 33.94684 -118.41271 93 ft 17 kts 26°
2026-05-04 14:46 33.94726 -118.41139 92 ft 18 kts 82°
2026-05-04 14:46 33.94742 -118.40992 92 ft 20 kts 82°
2026-05-04 14:46 33.94763 -118.40805 94 ft 22 kts 82°
2026-05-04 14:46 33.94791 -118.40623 93 ft 23 kts 47°
2026-05-04 14:47 33.94877 -118.40489 94 ft 23 kts 84°
2026-05-04 14:47 33.94894 -118.40288 93 ft 25 kts 83°
2026-05-04 14:47 33.94909 -118.40167 94 ft 10 kts 83°
2026-05-04 14:47 33.94915 -118.40102 93 ft 5 kts 84°
2026-05-04 14:48 33.94939 -118.40063 95 ft 9 kts 20°
2026-05-04 14:48 33.95004 -118.40065 95 ft 10 kts 348°
2026-05-04 14:48 33.95024 -118.40130 96 ft 9 kts 262°
2026-05-04 14:48 33.95015 -118.40218 99 ft 17 kts 262°
2026-05-04 14:49 33.94973 -118.40614 96 ft 81 kts 263°
2026-05-04 14:49 33.94879 -118.41535 97 ft 137 kts 263°
2026-05-04 14:49 33.94756 -118.42830 308 ft 163 kts 264°
2026-05-04 14:49 33.94633 -118.44151 1144 ft 156 kts 265°
2026-05-04 14:50 33.94544 -118.45493 1751 ft 163 kts 264°
2026-05-04 14:50 33.94363 -118.46942 2090 ft 189 kts 263°
2026-05-04 14:50 33.94272 -118.48616 2320 ft 211 kts 269°
2026-05-04 14:50 33.94225 -118.50460 2636 ft 225 kts 269°
2026-05-04 14:51 33.94129 -118.52421 2885 ft 244 kts 265°
2026-05-04 14:51 33.93961 -118.54494 3487 ft 252 kts 265°
2026-05-04 14:51 33.93787 -118.56612 4268 ft 254 kts 265°
2026-05-04 14:51 33.93616 -118.58736 5036 ft 257 kts 265°
2026-05-04 14:52 33.93380 -118.60869 5845 ft 257 kts 255°
2026-05-04 14:52 33.92448 -118.62743 6615 ft 263 kts 226°
2026-05-04 14:52 33.90869 -118.63900 7306 ft 272 kts 200°
2026-05-04 14:52 33.88980 -118.64159 8036 ft 277 kts 180°
2026-05-04 14:53 33.87051 -118.64016 8793 ft 278 kts 178°
2026-05-04 14:53 33.85114 -118.63845 9544 ft 280 kts 175°
2026-05-04 14:53 33.83251 -118.63120 10209 ft 288 kts 152°
2026-05-04 14:53 33.81519 -118.61774 10443 ft 308 kts 149°
2026-05-04 14:54 33.79700 -118.60265 10751 ft 324 kts 148°
2026-05-04 14:54 33.77836 -118.58708 11302 ft 329 kts 149°
2026-05-04 14:54 33.75932 -118.57136 11969 ft 332 kts 150°
2026-05-04 14:54 33.74009 -118.55566 12617 ft 336 kts 151°
2026-05-04 14:55 33.72062 -118.53985 13268 ft 340 kts 152°
2026-05-04 14:55 33.70176 -118.52207 13903 ft 354 kts 137°
2026-05-04 14:55 33.68891 -118.49614 14496 ft 370 kts 116°
2026-05-04 14:55 33.68031 -118.46709 15114 ft 376 kts 114°
2026-05-04 14:56 33.67196 -118.43708 15688 ft 382 kts 114°
2026-05-04 14:56 33.66329 -118.40655 16243 ft 388 kts 115°
2026-05-04 14:56 33.65429 -118.37580 16827 ft 393 kts 116°
2026-05-04 14:56 33.64554 -118.34452 17394 ft 401 kts 109°
2026-05-04 14:57 33.64297 -118.31046 17945 ft 416 kts 94°
2026-05-04 14:57 33.64330 -118.27553 18507 ft 421 kts 94°
2026-05-04 14:57 33.64380 -118.24022 18981 ft 426 kts 94°
2026-05-04 14:57 33.64421 -118.20449 19477 ft 430 kts 95°
2026-05-04 14:58 33.64448 -118.16842 19982 ft 434 kts 95°
2026-05-04 14:58 33.64460 -118.13199 20481 ft 438 kts 96°
2026-05-04 14:58 33.64462 -118.09514 20978 ft 442 kts 96°
2026-05-04 14:58 33.64460 -118.05808 21440 ft 446 kts 96°
2026-05-04 14:59 33.64455 -118.02071 21954 ft 449 kts 97°
2026-05-04 14:59 33.64449 -117.98318 22427 ft 453 kts 97°
2026-05-04 14:59 33.64435 -117.90688 23346 ft 460 kts 98°
2026-05-04 15:00 33.64428 -117.86825 23783 ft 464 kts 98°
2026-05-04 15:00 33.64418 -117.82974 24130 ft 468 kts 98°
2026-05-04 15:00 33.64320 -117.79077 24485 ft 463 kts 107°
2026-05-04 15:01 33.62646 -117.71783 25237 ft 452 kts 118°
2026-05-04 15:01 33.61696 -117.68169 25633 ft 455 kts 118°
2026-05-04 15:01 33.60748 -117.64524 25987 ft 459 kts 118°
2026-05-04 15:01 33.59811 -117.60848 26341 ft 462 kts 118°
2026-05-04 15:02 33.58881 -117.57138 26693 ft 466 kts 118°
2026-05-04 15:02 33.57954 -117.53402 27052 ft 469 kts 118°
2026-05-04 15:02 33.57022 -117.49635 27411 ft 472 kts 118°
2026-05-04 15:02 33.56087 -117.45853 27693 ft 474 kts 117°
2026-05-04 15:03 33.55147 -117.42056 28101 ft 475 kts 117°
2026-05-04 15:03 33.54201 -117.38247 28436 ft 477 kts 117°
2026-05-04 15:03 33.53248 -117.34420 28726 ft 480 kts 117°
2026-05-04 15:03 33.52300 -117.30612 29022 ft 483 kts 117°
2026-05-04 15:04 33.51335 -117.26748 29322 ft 485 kts 117°
2026-05-04 15:04 33.50442 -117.22825 29699 ft 495 kts 109°
2026-05-04 15:04 33.50202 -117.18649 30138 ft 507 kts 99°
2026-05-04 15:04 33.50183 -117.14424 30512 ft 506 kts 97°
2026-05-04 15:05 33.50195 -117.10184 30754 ft 509 kts 97°
2026-05-04 15:05 33.50197 -117.05929 30981 ft 512 kts 98°
2026-05-04 15:05 33.50177 -117.01659 31284 ft 512 kts 98°
2026-05-04 15:05 33.50140 -116.97672 31584 ft 512 kts 99°
2026-05-04 15:06 33.50084 -116.93413 31897 ft 512 kts 99°
2026-05-04 15:06 33.50042 -116.90586 32090 ft 513 kts 99°
2026-05-04 15:06 33.49973 -116.86311 32364 ft 512 kts 99°
2026-05-04 15:07 33.49835 -116.77791 33045 ft 511 kts 99°
2026-05-04 15:07 33.49688 -116.69203 33010 ft 516 kts 99°
2026-05-04 15:08 33.49547 -116.60638 32982 ft 509 kts 99°
2026-05-04 15:08 33.49395 -116.52216 32987 ft 509 kts 99°
2026-05-04 15:09 33.49238 -116.43707 32967 ft 512 kts 99°
2026-05-04 15:09 33.49097 -116.35142 32967 ft 515 kts 98°
2026-05-04 15:10 33.48913 -116.22259 32964 ft 515 kts 98°
2026-05-04 15:11 33.48706 -116.09399 32947 ft 517 kts 99°
2026-05-04 15:11 33.49171 -116.00753 32924 ft 532 kts 75°
2026-05-04 15:12 33.51623 -115.92661 32938 ft 533 kts 71°
2026-05-04 15:12 33.54195 -115.84330 32936 ft 533 kts 72°
2026-05-04 15:13 33.56643 -115.76012 32933 ft 532 kts 73°
2026-05-04 15:13 33.59063 -115.67645 32922 ft 529 kts 73°
2026-05-04 15:14 33.61435 -115.59302 32910 ft 526 kts 79°
2026-05-04 15:14 33.61929 -115.55030 32918 ft 511 kts 98°
2026-05-04 15:14 33.61805 -115.50792 32952 ft 507 kts 100°
2026-05-04 15:15 33.61469 -115.42320 32934 ft 509 kts 100°
2026-05-04 15:15 33.61193 -115.33803 32922 ft 511 kts 99°
2026-05-04 15:16 33.60862 -115.21005 32928 ft 511 kts 98°
2026-05-04 15:17 33.60522 -115.08187 32927 ft 514 kts 98°
2026-05-04 15:17 33.60170 -114.95618 32912 ft 516 kts 98°
2026-05-04 15:18 33.59925 -114.87023 32923 ft 510 kts 98°
2026-05-04 15:18 33.59801 -114.82777 32398 ft 512 kts 98°
2026-05-04 15:19 33.59430 -114.74332 31635 ft 497 kts 107°
2026-05-04 15:19 33.58766 -114.70315 31298 ft 487 kts 112°
2026-05-04 15:19 33.57117 -114.62513 30572 ft 479 kts 113°
2026-05-04 15:20 33.56289 -114.58659 30202 ft 476 kts 113°
2026-05-04 15:20 33.55489 -114.54814 29795 ft 474 kts 112°
2026-05-04 15:20 33.54716 -114.50977 29368 ft 471 kts 112°
2026-05-04 15:20 33.53963 -114.47160 28946 ft 468 kts 112°
2026-05-04 15:21 33.53225 -114.43385 28552 ft 464 kts 112°
2026-05-04 15:21 33.52492 -114.39628 28160 ft 461 kts 112°
2026-05-04 15:21 33.51042 -114.32232 27396 ft 453 kts 112°
2026-05-04 15:22 33.50316 -114.28550 27029 ft 451 kts 112°
2026-05-04 15:22 33.49593 -114.24897 26636 ft 448 kts 112°
2026-05-04 15:22 33.48164 -114.17684 25932 ft 441 kts 112°
2026-05-04 15:23 33.47457 -114.14122 25548 ft 440 kts 112°
2026-05-04 15:23 33.46750 -114.10569 25175 ft 438 kts 112°
2026-05-04 15:23 33.46060 -114.07110 24841 ft 435 kts 112°
2026-05-04 15:23 33.45359 -114.03605 24586 ft 430 kts 112°
2026-05-04 15:24 33.44027 -113.96961 24109 ft 420 kts 112°
2026-05-04 15:24 33.42671 -113.90224 23622 ft 414 kts 112°
2026-05-04 15:25 33.41997 -113.86872 23336 ft 412 kts 112°
2026-05-04 15:25 33.41325 -113.83533 23043 ft 410 kts 112°
2026-05-04 15:25 33.40661 -113.80232 22786 ft 407 kts 112°
2026-05-04 15:26 33.39338 -113.73674 22234 ft 402 kts 112°
2026-05-04 15:26 33.38681 -113.70427 21979 ft 399 kts 112°
2026-05-04 15:26 33.37384 -113.64026 21484 ft 393 kts 111°
2026-05-04 15:27 33.36737 -113.60844 21243 ft 392 kts 111°
2026-05-04 15:27 33.35451 -113.54534 20713 ft 388 kts 111°
2026-05-04 15:28 33.34180 -113.48309 20129 ft 387 kts 111°
2026-05-04 15:28 33.33545 -113.45184 19861 ft 387 kts 109°
2026-05-04 15:28 33.32446 -113.38887 19271 ft 386 kts 107°
2026-05-04 15:29 33.31923 -113.35742 19021 ft 384 kts 107°
2026-05-04 15:30 33.29799 -113.23374 18008 ft 377 kts 107°
2026-05-04 15:30 33.28455 -113.14143 17277 ft 370 kts 104°
2026-05-04 15:31 33.27599 -113.08122 16794 ft 365 kts 104°
2026-05-04 15:31 33.27328 -113.05135 16546 ft 366 kts 94°
2026-05-04 15:32 33.27648 -112.96214 15906 ft 362 kts 90°
2026-05-04 15:32 33.27854 -112.90211 15470 ft 362 kts 91°
2026-05-04 15:33 33.28007 -112.84194 14994 ft 362 kts 91°
2026-05-04 15:34 33.28615 -112.75288 14295 ft 358 kts 85°
2026-05-04 15:34 33.28921 -112.72351 14080 ft 355 kts 85°
2026-05-04 15:34 33.29504 -112.66551 13590 ft 347 kts 85°
2026-05-04 15:35 33.30047 -112.60893 13116 ft 338 kts 85°
2026-05-04 15:35 33.30303 -112.58162 12892 ft 334 kts 85°
2026-05-04 15:35 33.30563 -112.55375 12672 ft 330 kts 86°
2026-05-04 15:36 33.31065 -112.49938 12236 ft 329 kts 86°
2026-05-04 15:36 33.31315 -112.47216 12036 ft 329 kts 86°
2026-05-04 15:36 33.31566 -112.44487 11821 ft 330 kts 86°
2026-05-04 15:37 33.31816 -112.41758 11612 ft 330 kts 86°
2026-05-04 15:37 33.32065 -112.39040 11395 ft 329 kts 86°
2026-05-04 15:37 33.32309 -112.36370 11179 ft 325 kts 86°
2026-05-04 15:37 33.32555 -112.33667 10966 ft 320 kts 86°
2026-05-04 15:38 33.32795 -112.31035 10749 ft 315 kts 85°
2026-05-04 15:38 33.33034 -112.28440 10544 ft 311 kts 86°
2026-05-04 15:38 33.33261 -112.25956 10481 ft 297 kts 87°
2026-05-04 15:38 33.33480 -112.23559 10376 ft 283 kts 87°
2026-05-04 15:39 33.33688 -112.21274 10272 ft 269 kts 87°
2026-05-04 15:39 33.33883 -112.19118 10145 ft 254 kts 88°
2026-05-04 15:39 33.34253 -112.14991 9470 ft 244 kts 88°
2026-05-04 15:40 33.34429 -112.13037 9279 ft 232 kts 88°
2026-05-04 15:40 33.34599 -112.11170 9110 ft 218 kts 89°
2026-05-04 15:40 33.34757 -112.09386 8958 ft 216 kts 89°
2026-05-04 15:40 33.34789 -112.07572 8673 ft 218 kts 96°
2026-05-04 15:41 33.34753 -112.05746 8382 ft 223 kts 97°
2026-05-04 15:41 33.34721 -112.04443 8235 ft 242 kts 96°
2026-05-04 15:41 33.34667 -112.01632 7731 ft 259 kts 96°
2026-05-04 15:41 33.34641 -111.99642 7387 ft 257 kts 96°
2026-05-04 15:42 33.34623 -111.98205 7144 ft 254 kts 96°
2026-05-04 15:42 33.34597 -111.96115 6807 ft 250 kts 96°
2026-05-04 15:42 33.34570 -111.94054 6463 ft 247 kts 96°
2026-05-04 15:42 33.34775 -111.92009 5955 ft 255 kts 71°
2026-05-04 15:43 33.35762 -111.90272 5607 ft 253 kts 50°
2026-05-04 15:43 33.37029 -111.88832 5223 ft 249 kts 44°
2026-05-04 15:43 33.38305 -111.87471 4829 ft 242 kts 44°
2026-05-04 15:43 33.39618 -111.86248 4476 ft 238 kts 27°
2026-05-04 15:44 33.41171 -111.85903 4198 ft 221 kts 351°
2026-05-04 15:44 33.42561 -111.86495 3839 ft 207 kts 320°
2026-05-04 15:44 33.43520 -111.87694 3491 ft 195 kts 296°
2026-05-04 15:44 33.43908 -111.89205 3093 ft 186 kts 271°
2026-05-04 15:45 33.44030 -111.90666 2990 ft 166 kts 270°
2026-05-04 15:45 33.44088 -111.92067 2737 ft 181 kts 267°
2026-05-04 15:45 33.44079 -111.93596 2238 ft 182 kts 257°
2026-05-04 15:45 33.44028 -111.95093 2108 ft 166 kts 266°
2026-05-04 15:46 33.44072 -111.96414 1812 ft 154 kts 268°
2026-05-04 15:46 33.44086 -111.97674 1492 ft 152 kts 264°
2026-05-04 15:46 33.44086 -111.98851 1264 ft 153 kts 265°
2026-05-04 15:46 33.44088 -112.00188 1135 ft 147 kts 264°
2026-05-04 15:47 33.44074 -112.01145 1133 ft 102 kts 270°
2026-05-04 15:47 33.44081 -112.01766 1125 ft 35 kts 270°
2026-05-04 15:47 33.44080 -112.01964 1121 ft 19 kts 255°
2026-05-04 15:47 33.43995 -112.02028 1119 ft 16 kts 148°
2026-05-04 15:48 33.43976 -112.01913 1118 ft 15 kts 89°
2026-05-04 15:48 33.43975 -112.01782 1119 ft 15 kts 90°
2026-05-04 15:48 33.43976 -112.01549 1119 ft 13 kts 91°
2026-05-04 15:49 33.43975 -112.01436 1119 ft 15 kts 91°
2026-05-04 15:49 33.43973 -112.01315 1120 ft 14 kts 91°
2026-05-04 15:49 33.43975 -112.01199 1126 ft 13 kts 90°
2026-05-04 15:49 33.43975 -112.01088 1120 ft 14 kts 90°
2026-05-04 15:50 33.43975 -112.00946 1119 ft 20 kts 90°
2026-05-04 15:50 33.43975 -112.00821 1119 ft 24 kts 90°
2026-05-04 15:50 33.43975 -112.00619 1119 ft 23 kts 90°
2026-05-04 15:50 33.43975 -112.00427 1121 ft 22 kts 90°
2026-05-04 15:51 33.43974 -112.00242 1123 ft 22 kts 90°
2026-05-04 15:51 33.43972 -112.00066 1126 ft 13 kts 99°
2026-05-04 15:51 33.43892 -112.00067 1121 ft 13 kts 203°
2026-05-04 15:51 33.43816 -112.00074 1118 ft 12 kts 180°
2026-05-04 15:52 33.43746 -112.00074 1119 ft 7 kts 180°
2026-05-04 15:52 33.43723 -112.00099 1119 ft 5 kts 283°
2026-05-04 15:52 33.43723 -112.00123 1123 ft 0 kts 271°
2026-05-04 15:52 33.43723 -112.00124 1123 ft 0 kts 271°